This is the latest recevied weather packets stored in our database for station/object DG3EAJ-12. If no packets are shown the sender has not sent any weather packets the latest 10 day(s).
| Time | Temp. | Humidity | Pressure | Rain* | Wind** | Luminosity | Snow |
|---|---|---|---|---|---|---|---|
| 1777259606 | 17.22° C | 48% | 1025.2 hPa | - | - | - | - |
| 1777257805 | 17.22° C | 48% | 1025.1 hPa | - | - | - | - |
| 1777256005 | 17.78° C | 47% | 1025.2 hPa | - | - | - | - |
| 1777254205 | 17.78° C | 47% | 1025.1 hPa | - | - | - | - |
| 1777252405 | 17.78° C | 47% | 1025.3 hPa | - | - | - | - |
| 1777250605 | 17.22° C | 47% | 1025.4 hPa | - | - | - | - |
| 1777248804 | 17.78° C | 47% | 1025.4 hPa | - | - | - | - |
| 1777247004 | 17.78° C | 47% | 1025.4 hPa | - | - | - | - |
| 1777245204 | 17.78° C | 47% | 1025.5 hPa | - | - | - | - |
| 1777243404 | 17.78° C | 47% | 1025.6 hPa | - | - | - | - |
| 1777239805 | 18.33° C | 46% | 1025.3 hPa | - | - | - | - |
| 1777238005 | 18.33° C | 46% | 1025.5 hPa | - | - | - | - |
| 1777236205 | 18.89° C | 46% | 1025.6 hPa | - | - | - | - |
| 1777234405 | 18.89° C | 46% | 1025.6 hPa | - | - | - | - |
| 1777232604 | 19.44° C | 46% | 1025.4 hPa | - | - | - | - |
| 1777230803 | 20° C | 46% | 1025.1 hPa | - | - | - | - |
| 1777229003 | 20° C | 45% | 1024.8 hPa | - | - | - | - |
| 1777227203 | 20° C | 45% | 1024.7 hPa | - | - | - | - |
| 1777225403 | 20.56° C | 44% | 1024.7 hPa | - | - | - | - |
| 1777223602 | 18.89° C | 47% | 1024.6 hPa | - | - | - | - |
| 1777221802 | 19.44° C | 48% | 1024.7 hPa | - | - | - | - |
| 1777218204 | 19.44° C | 47% | 1025.1 hPa | - | - | - | - |
| 1777216403 | 18.89° C | 47% | 1025.2 hPa | - | - | - | - |
| 1777214603 | 18.33° C | 46% | 1025.5 hPa | - | - | - | - |
| 1777212803 | 18.89° C | 45% | 1025.7 hPa | - | - | - | - |
* Rain since midnight (hover to see other rain measurements)
** Current wind speed in m/s (hover to see current wind gust speed)